Farmingdale, NY

8:26 PM EDT on April 23, 2018 (GMT -0400)
Republic

Weather History for KFRG - August, 2013

Change the Weather History Date:

Sunday, August 18, 2013

  Actual Average Record
Temperature  
Mean Temperature 69 °F -  
Max Temperature 75 °F 79 °F 93 °F (2002)
Min Temperature 63 °F 64 °F 60 °F (2007)
Cooling Degree Days 4    
Growing Degree Days 19 (Base 50)    
Moisture  
Dew Point 58 °F    
Average Humidity 70    
Maximum Humidity 90    
Minimum Humidity 52    
Precipitation  
Precipitation 0.00 in - - ()
Sea Level Pressure  
Sea Level Pressure 30.21 in    
Wind  
Wind Speed 2 mph (East)    
Max Wind Speed 8 mph    
Max Gust Speed -    
Visibility 10 miles    
Events Rain    
Averages and records for this station are not official NWS values.
T = Trace of Precipitation, MM = Missing Value Source: NWS Daily Summary

Daily Weather History Graph

Daily Weather History Graph

Search for Another Location

Airport or City:

Astronomy

Aug. 18, 2013 Rise Set
Actual Time 6:07 AM EDT 7:47 PM EDT
Civil Twilight 5:37 AM EDT 8:16 PM EDT
Nautical Twilight 5:02 AM EDT 8:51 PM EDT
Astronomical Twilight 4:25 AM EDT 9:28 PM EDT
Moon 5:51 PM EDT (8/18) 3:12 AM EDT (8/18)
Length of Visible Light 14h 38m
Length of Day
13h 39m
Waxing Gibbous, 92% of the Moon is Illuminated
Aug 18
Waxing Gibbous
Aug 20
Full
Aug 28
Last Quarter
Sep 5
New
Sep 12
First Quarter

Hourly Weather History & Observations

Time (EDT) Temp. Dew Point Humidity Pressure Visibility Wind Dir Wind Speed Gust Speed Precip Events Conditions
12:53 AM 64.9 °F 59.0 °F 81% 30.26 in 10.0 mi Calm Calm - N/A   Clear
1:53 AM 64.9 °F 59.0 °F 81% 30.25 in 10.0 mi Calm Calm - N/A   Clear
2:53 AM 64.9 °F 59.0 °F 81% 30.25 in 10.0 mi Calm Calm - N/A   Clear
3:53 AM 63.0 °F 60.1 °F 90% 30.25 in 10.0 mi Calm Calm - N/A   Clear
4:53 AM 64.0 °F 59.0 °F 84% 30.25 in 10.0 mi Calm Calm - N/A   Clear
5:53 AM 63.0 °F 59.0 °F 87% 30.24 in 10.0 mi NE 3.5 mph - N/A   Clear
6:53 AM 64.0 °F 59.0 °F 84% 30.26 in 10.0 mi Calm Calm - N/A   Clear
7:53 AM 66.9 °F 60.1 °F 79% 30.26 in 10.0 mi NE 3.5 mph - N/A   Clear
8:53 AM 70.0 °F 60.1 °F 71% 30.26 in 10.0 mi Calm Calm - N/A   Clear
9:53 AM 71.1 °F 60.1 °F 68% 30.26 in 10.0 mi East 3.5 mph - N/A   Clear
10:53 AM 72.0 °F 60.1 °F 66% 30.25 in 10.0 mi East 4.6 mph - 0.00 in Rain Light Rain
11:53 AM 73.9 °F 57.0 °F 55% 30.25 in 10.0 mi ENE 6.9 mph - 0.00 in   Clear
12:53 PM 73.9 °F 55.0 °F 52% 30.24 in 10.0 mi Variable 4.6 mph - N/A   Clear
1:53 PM 75.9 °F 57.0 °F 52% 30.21 in 10.0 mi Variable 5.8 mph - N/A   Mostly Cloudy
2:53 PM 75.0 °F 60.1 °F 60% 30.18 in 10.0 mi SE 8.1 mph - N/A   Overcast
3:53 PM 73.0 °F 59.0 °F 61% 30.16 in 10.0 mi SE 6.9 mph - N/A   Overcast
4:53 PM 73.0 °F 59.0 °F 61% 30.14 in 10.0 mi ESE 4.6 mph - N/A   Overcast
5:53 PM 72.0 °F 60.1 °F 66% 30.14 in 10.0 mi SSE 5.8 mph - N/A   Overcast
6:53 PM 70.0 °F 61.0 °F 73% 30.14 in 10.0 mi Calm Calm - 0.00 in   Mostly Cloudy
7:53 PM 69.1 °F 55.9 °F 63% 30.14 in 10.0 mi ENE 3.5 mph - N/A   Mostly Cloudy
8:53 PM 68.0 °F 55.0 °F 63% 30.15 in 10.0 mi NE 3.5 mph - N/A   Clear
9:53 PM 66.0 °F 55.0 °F 68% 30.14 in 10.0 mi Calm Calm - N/A   Clear
10:53 PM 66.0 °F 54.0 °F 65% 30.14 in 10.0 mi Calm Calm - N/A   Clear
11:53 PM 64.9 °F 55.9 °F 73% 30.14 in 10.0 mi South 3.5 mph - N/A   Clear